Location: Peterborough
(44.3091°N, 78.3197°W)
Time: 00:49:20
(UTC-04:00)

SR - Pass Details

Date: 28 March 2023
Orbit: 581 x 867 km, 66.7° (Epoch: 02 June)

Event Time Altitude Azimuth Distance (km) Brightness Sun altitude
Rises 03:10:11 0° 222° (SW) 2,995 - -36.6°
Reaches altitude 10° 03:12:36 10° 226° (SW) 2,043 - -36.3°
Maximum altitude 03:17:05 56° 305° (NW) 739 - -35.8°
Exits shadow 03:20:22 17° 20° (NNE) 1,558 ? -35.5°
Drops below altitude 10° 03:21:21 10° 24° (NNE) 1,937 ? -35.4°
Sets 03:23:35 0° 29° (NNE) 2,824 ? -35.1°
